Regional Weather Roundup
Issued by NWS Green Bay, WI

Home | Current Version | Previous Version | Text Only | Print | Product List | Glossary On
Versions: 1 2 3 4 5 6 7 8 9 10 11 12 13 14 15 16 17 18 19 20 21 22 23 24 25 26 27 28 29 30 31 32 33 34 35 36 37 38 39 40 41 42 43 44 45 46 47 48 49 50
000
ASUS43 KGRB 021211
RWRGRB

NORTH-CENTRAL AND NORTHEAST WISCONSIN REGIONAL WEATHER ROUNDUP
NATIONAL WEATHER SERVICE GREEN BAY WI
700 AM CDT THU JUL 02 2015

WIZ005-009-010>012-018-019-021300-
NORTH CENTRAL WISCONSIN

CITY           SKY/WX    TMP DP  RH WIND       PRES   REMARKS
IRONWOOD       SUNNY     55  48  76 S8        30.03R
MANITOWISH WTR NOT AVBL
ARBOR VITAE    SUNNY     52  50  92 SW3       30.09R
EAGLE RIVER    NOT AVBL
LAND O LAKES   NOT AVBL
RHINELANDER    SUNNY     51  47  86 CALM      30.10R
PHILLIPS       NOT AVBL
ANTIGO         SUNNY     49  48  95 CALM      30.09R
TOMAHAWK       NOT AVBL
MERRILL        NOT AVBL
$$

WIZ013-073-021300-
NORTHEAST WISCONSIN

CITY           SKY/WX    TMP DP  RH WIND       PRES   REMARKS
IRON MOUNTAIN  SUNNY     50  46  86 N3        30.07S
MARINETTE      SUNNY     52  43  71 N3        30.06S
$$

WIZ017-030-035>037-045-021300-
CENTRAL WISCONSIN

CITY           SKY/WX    TMP DP  RH WIND       PRES   REMARKS
MEDFORD        NOT AVBL
WAUSAU         SUNNY     52  48  86 CALM      30.08R
MOSINEE        NOT AVBL
MARSHFIELD     SUNNY     54  50  86 SE3       30.08R FOG
WISC RAPIDS    SUNNY     54  51  90 CALM      30.09R
STEVENS POINT  NOT AVBL
WAUPACA        NOT AVBL
SHAWANO        NOT AVBL
CLINTONVILLE   NOT AVBL
$$

WIZ038-039-048-051-021300-
FOX VALLEY

CITY           SKY/WX    TMP DP  RH WIND       PRES   REMARKS
NWS GREEN BAY  SUNNY     53  50  89 N3        30.06F
APPLETON       SUNNY     54  45  71 N5        30.07S
OSHKOSH          N/A     57  46  66 NE7       30.05S
FOND DU LAC    SUNNY     54  48  80 CALM      30.05S
$$

WIZ022-050-052-021300-
EAST CENTRAL WISCONSIN

CITY           SKY/WX    TMP DP  RH WIND       PRES   REMARKS
STURGEON BAY   SUNNY     52  46  82 CALM      30.08F
MANITOWOC      SUNNY     51  48  89 MISG      30.06S
SHEBOYGAN      SUNNY     52  47  83 NE6       30.04F
$$

LMZ563-521-522-541>543-021300-
LAKESHORE

STATION/POSITION TIME  TEMP    WIND        PRES    VSBY  WAVE
                       AIR SEA DIR/SP/G                  HT/PER
                 (UTC) (F)     (DEG/KT/KT) (MB)    (MI)  (FT/S)
SHEBOYGAN LKSHOR 1200   55      30/ 10/ 11 1017.5F
KEWAUNEE LKSHORE 1100   47     300/  1/  3 1017.2R
NORTHPORT PIER   1100   51     200/  3/  3 1017.9R
N MID LAKE BUOY  1150   49 41  290/  2/  4 1018.1R         0
S GREEN BAY BUOY 1200   60 68   90/  4/  6 1019.2
SISTER BAY LKSHO 1144   55        CALM       N/A
STURGEON BAY CG  1150   49     310/  4     1018.8      6   1
CHAMBERS ISLAND  1100   51      CALM  /  1 1018.3R
MENOMINEE LKSHOR 1100   53     250/  2/  3 1018.8R
$$


USA.gov is the U.S. government's official web portal to all federal, state and local government web resources and services.